This demonstration page uses our WeatherBlox Daily Observations layout. Learn more.

Left ArrowRight Arrow

34.74481, -87.66753

Hourly Observations for October 19, 2021

Temp ( °F °C ) Dew Point ( °F °C ) Humidity (%) Winds ( mph kmh ) Pressure ( in mb ) Visibility ( mi km ) Precip ( " mm )
12:16 am 00:16 Clear with Mist and Fog 50 10 47 8.3 89 89 N N/A 30.18 1022 3 4 N/A
12:25 am 00:25 Clear 50 10 46 7.8 86 86 N N/A 30.18 1022 8 13 N/A
12:53 am 00:53 Clear 50 10 46 7.8 86 86 N N/A 30.16 1021 10 16 N/A
1:15 am 01:15 Clear with Mist and Fog 50 10 46 7.8 86 86 N N/A 30.18 1022 2 3 N/A
1:23 am 01:23 Clear 50 10 46 7.8 86 86 N N/A 30.18 1022 8 13 N/A
1:53 am 01:53 Clear with Mist and Fog 49 9.4 46 7.8 90 90 N N/A 30.16 1022 2 3 N/A
2:03 am 02:03 Clear 48 8.9 44 6.7 86 86 N N/A 30.19 1022 10 16 N/A
2:37 am 02:37 Clear with Mist and Fog 48 8.9 45 7.2 89 89 N N/A 30.19 1022 2 3 N/A
2:50 am 02:50 Hazy 48 9 45 7 87 87 N N/A 30.19 1022 4 6 N/A
2:53 am 02:53 Clear 49 9.4 44 6.7 83 83 N N/A 30.17 1022 8 13 N/A
3:25 am 03:25 Partly Cloudy with Mist and Fog 48 8.9 44 6.7 86 86 N N/A 30.19 1022 4 6 N/A
3:29 am 03:29 Partly Cloudy with Mist and Fog 47 8.3 44 6.7 90 90 N N/A 30.19 1022 2 3 N/A
3:32 am 03:32 Mostly Cloudy with Mist and Fog 47 8.3 44 6.7 90 90 N N/A 30.19 1022 1 1 N/A
3:53 am 03:53 Partly Cloudy with Mist and Fog 48 8.9 44 6.7 86 86 E 3 6 30.16 1021 3 4 N/A
4:00 am 04:00 Partly Cloudy with Mist and Fog 48 8.9 44 6.7 86 86 N N/A 30.18 1022 6 10 N/A
4:31 am 04:31 Clear with Mist and Fog 47 8.3 44 6.7 90 90 N N/A 30.19 1022 2 3 N/A
4:47 am 04:47 Clear with Mist and Fog 46 8 43 6 87 87 N N/A 30.20 1023 3 5 N/A
4:53 am 04:53 Clear 47 8.3 43 6.1 86 86 N N/A 30.18 1022 10 16 N/A
5:20 am 05:20 Clear with Mist and Fog 46 7.8 42 5.6 86 86 N N/A 30.21 1023 2 2 N/A
5:29 am 05:29 Clear with Mist and Fog 47 8.3 43 6.1 86 86 N N/A 30.21 1023 1 1 N/A
5:39 am 05:39 Clear with Mist and Fog 47 8.3 43 6.1 86 86 N N/A 30.21 1023 2 3 N/A
5:46 am 05:46 Clear with Mist and Fog 47 8.3 43 6.1 86 86 N N/A 30.21 1023 6 10 N/A
5:53 am 05:53 Clear 48 8.9 44 6.7 86 86 N N/A 30.19 1023 7 11 N/A
6:53 am 06:53 Clear with Mist and Fog 46 7.8 42 5.6 86 86 N N/A 30.21 1023 3 4 N/A
7:00 am 07:00 Sunny with Mist and Fog 46 7.8 42 5.6 86 86 N N/A 30.23 1024 1 2 N/A
7:10 am 07:10 Sunny with Mist and Fog 46 7.8 42 5.6 86 86 N N/A 30.23 1024 2 3 N/A
7:22 am 07:22 Sunny with Mist and Fog 47 8.3 43 6.1 86 86 N N/A 30.24 1024 6 10 N/A
7:31 am 07:31 Partly Cloudy with Mist and Fog 47 8.3 43 6.1 86 86 N N/A 30.24 1024 6 10 N/A
7:50 am 07:50 Mostly Cloudy 48 9 45 7 87 87 N N/A 30.24 1024 10 16 N/A
7:53 am 07:53 Mostly Cloudy 49 9.4 45 7.2 86 86 N N/A 30.23 1024 10 16 N/A
8:04 am 08:04 Cloudy with Mist and Fog 50 10 47 8.3 89 89 SE 3 6 30.25 1024 1 1 N/A
8:26 am 08:26 Mostly Cloudy with Fog 51 10.6 48 8.9 89 89 E 5 7 30.25 1024 0 0 N/A
8:53 am 08:53 Mostly Cloudy with Fog 53 11.7 50 10 89 89 ESE 6 9 30.24 1024 0 0 N/A
9:21 am 09:21 Cloudy with Mist and Fog 55 12.8 52 11.1 90 90 SE 5 7 30.25 1024 1 2 N/A
9:25 am 09:25 Cloudy with Mist and Fog 55 12.8 52 11.1 90 90 SE 3 6 30.25 1024 3 5 N/A
9:44 am 09:44 Partly Cloudy 56 13.3 52 11.1 87 87 E 3 6 30.26 1025 10 16 N/A
9:53 am 09:53 Sunny 57 13.9 52 11.1 83 83 SE 3 6 30.25 1024 10 16 N/A
10:53 am 10:53 Sunny 66 18.9 52 11.1 61 61 N N/A 30.24 1024 10 16 N/A
11:53 am 11:53 Sunny 72 22.2 48 8.9 43 43 S 10 17 30.22 1023 10 16 N/A
12:53 pm 12:53 Sunny 73 22.8 50 10 44 44 SW 6 9 30.19 1023 10 16 N/A
1:53 pm 13:53 Sunny 75 23.9 48 8.9 39 39 N N/A 30.17 1022 10 16 N/A
2:53 pm 14:53 Sunny 75 23.9 48 8.9 39 39 SW 3 6 30.16 1021 10 16 N/A
3:53 pm 15:53 Sunny 75 23.9 48 8.9 39 39 SSW 5 7 30.15 1021 10 16 N/A
4:53 pm 16:53 Sunny 74 23.3 48 8.9 40 40 S 5 7 30.14 1021 10 16 N/A
5:53 pm 17:53 Sunny 71 21.7 51 10.6 49 49 S 5 7 30.14 1021 10 16 N/A
6:53 pm 18:53 Clear 65 18.3 52 11.1 63 63 SSE 3 6 30.16 1021 10 16 N/A
7:53 pm 19:53 Clear 60 15.6 52 11.1 75 75 N N/A 30.17 1022 10 16 N/A
8:53 pm 20:53 Clear 58 14.4 52 11.1 81 81 N N/A 30.18 1022 10 16 N/A
9:53 pm 21:53 Clear 55 12.8 51 10.6 87 87 N N/A 30.19 1023 10 16 N/A
10:53 pm 22:53 Clear 55 12.8 51 10.6 87 87 N N/A 30.20 1023 10 16 N/A
11:53 pm 23:53 Clear 54 12.2 50 10 87 87 N N/A 30.19 1022 10 16 N/A

Powered by AerisWeather